Hourly Data Report for May 14, 2021

WINNIPEG THE FORKS
MANITOBA
Current Station Operator: ECCC - MSC

49°53'18.008" N
97°07'46.007" W
230.00 m
5023262
71579
XWN

Download Data

Hourly Data (May 2021)
Hourly Data Report for May 14, 2021
TIME
LST
Temp Definition
°C
Dew Point Definition
°C
Rel Hum Definition
%
Precip. Amount Definition
mm

Wind Dir Definition
10's deg

Wind Spd Definition
km/h
Visibility Definition
km
Stn Press Definition
kPa
Hmdx Definition


Wind Chill Definition


Weather Definition


00:00 15.0 3.2 45 0.0 23 5   99.02     LegendNANA
01:00 13.3 3.8 53 0.0 20 3   99.05     LegendNANA
02:00 12.7 4.1 56 0.0 10 3   99.03     LegendNANA
03:00 10.4 3.3 62 0.0 3 2   99.04     LegendNANA
04:00 10.3 3.3 62 0.0 20 4   99.05     LegendNANA
05:00 10.3 3.3 62 0.0 20 4   99.05     LegendNANA
06:00 10.9 3.7 61 0.0 19 3   99.06     LegendNANA
07:00 12.6 4.1 56 0.0 21 3   99.06     LegendNANA
08:00 15.4 4.4 48 0.0 21 3   99.05     LegendNANA
09:00 16.8 5.0 46 0.0 24 1   99.05     LegendNANA
10:00 17.6 4.0 40 0.0 23 1   99.05     LegendNANA
11:00 20.6 4.5 35 0.0 19 2   99.01     LegendNANA
12:00 21.4 4.1 32 0.0 19 3   98.95     LegendNANA
13:00 23.2 2.5 26 0.0 27 3   98.86     LegendNANA
14:00 20.5 3.5 32 0.0 6 17   98.85     LegendNANA
15:00 21.2 2.3 29 0.0 8 13   98.84     LegendNANA
16:00 18.9 2.8 34 0.0 4 6   98.93     LegendNANA
17:00 17.8 3.5 39 0.0 33 10   98.90     LegendNANA
18:00 19.8 1.9 30 0.0 14 3   98.88     LegendNANA
19:00 19.1 3.1 35 0.0 7 7   98.91     LegendNANA
20:00 16.2 6.6 53 0.0 19 3   98.91     LegendNANA
21:00 14.8 6.8 59 0.0 9 3   98.94     LegendNANA
22:00 14.1 6.4 59 0.0 0 1   98.94     LegendNANA
23:00 12.7 6.1 64 0.0 20 2   98.98     LegendNANA

Notes on Data Quality.

Legend

  • E = Estimated
  • M = Missing
  • NA = Not Available*
  • [empty] = Indicates an unobserved value
Date modified: